Regional Weather Roundup
Issued by NWS Columbia, SC

Home | Current Version | Previous Version | Text Only | Print | Product List | Glossary On
Versions: 1 2 3 4 5 6 7 8 9 10 11 12 13 14 15 16 17 18 19 20 21 22 23 24 25 26 27 28 29 30 31 32 33 34 35 36 37 38 39 40 41 42 43 44 45 46 47 48 49 50
000
ASUS42 KCAE 160710
RWRCAE
REGIONAL WEATHER ROUNDUP
NATIONAL WEATHER SERVICE COLUMBIA SC
300 AM EDT TUE SEP 16 2014

NOTE: "FAIR" INDICATES FEW OR NO CLOUDS BELOW 12,000 FEET WITH NO
SIGNIFICANT WEATHER AND/OR OBSTRUCTIONS TO VISIBILITY.

NOT ALL STATIONS ARE QUALITY CONTROLLED BY THE NATIONAL
WEATHER SERVICE. USE DATA WITH CAUTION...ESPECIALLY
DEWPOINT OBSERVATIONS.

SCZ001>056-GAZ040-063>065-077-160800-
...UPSTATE SOUTH CAROLINA...

CITY           SKY/WX    TMP DP  RH WIND       PRES   REMARKS
ANDERSON       CLOUDY    71  70  96 CALM      30.11F
LIBERTY        CLOUDY    69  69 100 CALM      30.11F FOG
SPARTANBURG    FAIR      72 N/A N/A CALM      30.10F FOG
CLEMSON        CLOUDY    73  69  87 CALM      30.12F FOG
GREENVILLE     CLOUDY    70  68  93 SW5       30.12F FOG
GREENWOOD      CLOUDY    72  70  93 CALM      30.11F FOG
GREER          CLOUDY    70  69  97 S5        30.09F FOG
ROCK HILL      CLOUDY    71  69  93 SW5       30.10F FOG
LAURENS        CLOUDY    70 N/A N/A CALM      30.10F FOG


...CENTRAL SOUTH CAROLINA...

CITY           SKY/WX    TMP DP  RH WIND       PRES   REMARKS
COLUMBIA APT   CLOUDY    74  71  91 CALM      30.07F
COLUMBIA OWENS CLOUDY    74  71  91 CALM      30.08F
DARLINGTON     CLOUDY    72  68  88 CALM      30.08F
FLORENCE       CLOUDY    73  70  90 CALM      30.07S
MCENTIRE ANGB  CLOUDY    72  72  99 CALM      30.08F
ORANGEBURG     CLOUDY    74  72  93 NW3       30.06F FOG
SUMTER SHAW    LGT RAIN  73  70  88 NW3       30.06F
NEWBERRY       CLOUDY    72  72 100 CALM      30.12F FOG
AIKEN          CLOUDY    72  72 100 CALM      30.12S THUNDER FOG
BARNWELL       FAIR      73  73 100 NW3       30.08S FOG
MANNING        CLOUDY    72 N/A N/A CALM      30.07F
CAMDEN         PTSUNNY   72  72 100 CALM      30.09F FOG
LANCASTER      CLOUDY    72  72 100 CALM      30.10F FOG
WINNSBORO      PTSUNNY   70  70 100 CALM      30.08F FOG


...EASTERN AND COASTAL SOUTH CAROLINA...

CITY           SKY/WX    TMP DP  RH WIND       PRES   REMARKS
MYRTLE BEACH   MOCLDY    72  68  88 CALM      30.06F
N MYRTLE BCH   CLOUDY    72  69  90 CALM      30.06F
CONWAY         FAIR      70 N/A N/A CALM      30.07F HAZE
MARION         CLOUDY    72  70  94 CALM      30.07F
HARTSVILLE     FAIR      70  70 100 CALM      30.08F
FLORENCE       CLOUDY    73  70  90 CALM      30.07S
DARLINGTON     CLOUDY    72  68  88 CALM      30.08F
CHARLESTON APT FOG       75  73  94 CALM      30.06F VSB 1
MOUNT PLEASANT CLOUDY    73  73 100 CALM      30.06F FOG
WALTERBORO     CLOUDY    73 N/A N/A E3        30.06F
BEAUFORT       CLOUDY    76  74  93 CALM      30.06F


...EASTERN GEORGIA...

CITY           SKY/WX    TMP DP  RH WIND       PRES   REMARKS
AUGUSTA BUSH F CLOUDY    73  72  96 CALM      30.07S FOG
AUGUSTA DANIEL MOCLDY    74  73  97 CALM      30.09S FOG
THOMSON        CLOUDY    74  74 100 CALM      30.14S
WASHINGTON     CLOUDY    73 N/A N/A CALM      30.11S
SYLVANIA       CLOUDY    73  73  98 CALM      30.08F FOG
SAVANNAH       CLOUDY    75  72  90 CALM      30.07S


...SOUTHERN NORTH CAROLINA...

CITY           SKY/WX    TMP DP  RH WIND       PRES   REMARKS
CHARLOTTE      CLOUDY    70  68  93 CALM      30.09F
MONROE         CLOUDY    71  69  93 W5        30.08F
WADESBORO      PTSUNNY   70  68  94 CALM      30.08F FOG
ROCKINGHAM     PTSUNNY   69  68  96 CALM      30.08S FOG
RUTHERFORDTON  CLOUDY    69  69 100 CALM      30.11F FOG
ASHEVILLE      CLOUDY    66  65  96 W3        30.15F

$$


USA.gov is the U.S. government's official web portal to all federal, state and local government web resources and services.